Regional Weather Roundup
Issued by NWS

Home | Current Version | Previous Version | Text Only | Print | Product List | Glossary Off
Versions: 1 2 3 4 5 6 7 8 9 10 11 12 13 14 15 16 17 18 19 20 21 22 23 24 25 26 27 28 29 30 31 32 33 34 35 36 37 38 39 40 41 42 43 44 45 46 47 48 49 50

000
ASUS45 KCYS 011210
RWRWY

WYOMING REGIONAL WEATHER ROUNDUP
NATIONAL WEATHER SERVICE CHEYENNE WY
600 AM MDT MON JUN 01 2015

NOTE:  "FAIR" INDICATES FEW OR NO CLOUDS BELOW 12,000 FEET
WITH NO SIGNIFICANT WEATHER AND/OR OBSTRUCTIONS TO VISIBILITY.

WYZ001-011300-
YELLOWSTONE NATIONAL PARK

CITY           SKY/WX    TMP DP  RH WIND       PRES   REMARKS
LK YELLOWSTONE   N/A     43  39  86 CALM      30.18F
6HR MIN TEMP:  42; 6HR MAX TEMP:  48;

W YELLOWSTONE  NOT AVBL

$$
WYZ002>013-054>058-071-098>099-011300-
NORTHERN WYOMING

CITY           SKY/WX    TMP DP  RH WIND       PRES   REMARKS
JACKSON        NOT AVBL
CODY           FAIR      63  43  48 SW13      29.98F
GREYBULL       FAIR      58  52  80 W3        29.95R
6HR MIN TEMP:  58; 6HR MAX TEMP:  68;

WORLAND        FAIR      56  51  84 CALM      29.97R
6HR MIN TEMP:  55; 6HR MAX TEMP:  65;

SHERIDAN       FAIR      54  48  80 S7        29.92F
6HR MIN TEMP:  51; 6HR MAX TEMP:  63;

BUFFALO        FAIR      59  46  62 SW6       29.99F
6HR MIN TEMP:  54; 6HR MAX TEMP:  66;

GILLETTE       FAIR      56  53  90 S7        29.98F
6HR MIN TEMP:  50; 6HR MAX TEMP:  62; 6HR PCP: TRACE;

HULETT         FAIR      59  52  77 S5        29.98F
NEWCASTLE      FAIR      54  46  76 W3        30.02S

$$
WYZ014>020-022>026-101>103-011300-
CENTRAL WYOMING

CITY           SKY/WX    TMP DP  RH WIND       PRES   REMARKS
BIG PINEY      FAIR      47  42  83 S5        30.14R
6HR MIN TEMP:  46; 6HR MAX TEMP:  53;

PINEDALE       FAIR      46  43  87 CALM      30.16S
DUBOIS         FAIR      46  37  71 NW12      30.14F
LANDER         MOCLDY    56  46  69 S8        30.05R
6HR MIN TEMP:  56; 6HR MAX TEMP:  69;

RIVERTON       FAIR      57  49  74 N6        30.04R
6HR MIN TEMP:  54; 6HR MAX TEMP:  65;

CASPER         FAIR      50  47  89 CALM      30.04R
6HR MIN TEMP:  47; 6HR MAX TEMP:  55;

DOUGLAS        FAIR      51  49  92 SE7       30.03S
6HR MIN TEMP:  49; 6HR MAX TEMP:  59;


$$
WYZ021-027>030-104>119-011300-
SOUTHERN WYOMING

CITY           SKY/WX    TMP DP  RH WIND       PRES   REMARKS
EVANSTON       FAIR      55  35  47 S7        30.11S
6HR MIN TEMP:  55; 6HR MAX TEMP:  60;

KEMMERER       FAIR      46  41  81 N9        30.14S
FORT BRIDGER   SUNNY     54  41  62 CALM      30.14S
ROCK SPRINGS   FAIR      54  38  54 NE6       30.12R
6HR MIN TEMP:  53; 6HR MAX TEMP:  63;

DIXON          FAIR      50  41  70 CALM      30.20R
RAWLINS        FAIR      49  39  68 CALM      30.16R
6HR MIN TEMP:  48; 6HR MAX TEMP:  59;

SARATOGA       FAIR      52  37  58 S14       30.20R
LARAMIE        FAIR      45  38  76 SE9       30.19S
6HR MIN TEMP:  43; 6HR MAX TEMP:  49;

CHEYENNE       FAIR      51  42  71 W8        30.13R
6HR MIN TEMP:  48; 6HR MAX TEMP:  55;

TORRINGTON     FOG       54  52  93 E10       30.01S VSB 1
6HR MIN TEMP:  51; 6HR MAX TEMP:  59;

PINE BLUFFS    FAIR      45  45 100 CALM      30.10R

$$


USA.gov is the U.S. government's official web portal to all federal, state and local government web resources and services.